EW3370 Weather Reports


Display with metric or nautical units.
time (UTC)temp
F
wind
direction
speed
MPH
gust
MPH
rain 1hr
in
rain 24hr
in
rain mn
in
humidity
%
barometer
mb
20260903195049 80 216 2.0 9.0 0.00 0.00 0.00 68 1012.8
20260903194557 80 224 2.0 9.0 0.00 0.00 0.00 68 1012.8
20260903194019 80 209 2.0 9.0 0.00 0.00 0.00 68 1012.9
20260903193527 80 213 4.0 9.0 0.00 0.00 0.00 67 1012.9
20260903193030 79 199 3.0 9.0 0.00 0.00 0.00 68 1013.0
20260903192533 80 228 4.0 8.0 0.00 0.00 0.00 67 1013.0
20260903192043 80 215 2.0 8.0 0.00 0.00 0.00 68 1013.1
20260903191525 79 200 3.0 8.0 0.00 0.00 0.00 68 1013.1
20260903191031 80 220 5.0 8.0 0.00 0.00 0.00 67 1013.2
20260903190536 80 178 2.0 8.0 0.00 0.00 0.00 68 1013.3
20260903190022 80 213 3.0 8.0 0.00 0.00 0.00 67 1013.3
20260903185528 80 205 2.0 8.0 0.00 0.00 0.00 67 1013.4
20260903185032 80 210 3.0 7.0 0.00 0.00 0.00 66 1013.6
20260903184532 80 211 1.0 7.0 0.00 0.00 0.00 66 1013.7
20260903184032 79 223 2.0 8.0 0.00 0.00 0.00 67 1013.7
20260903183523 79 206 3.0 8.0 0.00 0.00 0.00 67 1013.9
20260903183025 78 191 2.0 7.0 0.00 0.00 0.00 68 1013.9
20260903182524 78 183 2.0 7.0 0.00 0.00 0.00 68 1013.9
20260903182026 78 202 4.0 8.0 0.00 0.00 0.00 68 1013.9
20260903181534 78 209 3.0 8.0 0.00 0.00 0.00 69 1014.0
20260903181030 78 210 3.0 8.0 0.00 0.00 0.00 68 1013.9
20260903180539 78 211 1.0 6.0 0.00 0.00 0.00 68 1014.0
20260903180035 77 198 1.0 7.0 0.00 0.00 0.00 70 1013.9
20260903175538 77 207 3.0 7.0 0.00 0.00 0.00 69 1014.0
20260903175022 77 195 3.0 7.0 0.00 0.00 0.00 70 1014.0
20260903174527 77 211 1.0 6.0 0.00 0.00 0.00 70 1014.0
20260903174032 77 220 2.0 7.0 0.00 0.00 0.00 70 1014.0
20260903173540 77 230 3.0 7.0 0.00 0.00 0.00 69 1013.9
20260903173025 77 198 0.0 0.0 0.00 0.00 0.00 69 1013.9
20260903172526 77 213 0.0 0.0 0.00 0.00 0.00 69 1013.9
20260903172025 77 238 0.0 0.0 0.00 0.00 0.00 69 1013.9
20260903171525 77 214 0.0 0.0 0.00 0.00 0.00 70 1013.8
20260903171046 77 167 0.0 0.0 0.00 0.00 0.00 71 1013.8
20260903170527 77 226 0.0 0.0 0.00 0.00 0.00 70 1013.9
20260903170034 77 181 0.0 0.0 0.00 0.00 0.00 70 1013.9
20260903165519 77 205 0.0 0.0 0.00 0.00 0.00 70 1013.9
20260903165023 77 211 0.0 0.0 0.00 0.00 0.00 70 1013.9
20260903164525 77 211 0.0 0.0 0.00 0.00 0.00 69 1013.9
20260903164030 77 252 0.0 0.0 0.00 0.00 0.00 70 1013.9
20260903163558 76 255 0.0 0.0 0.00 0.00 0.00 70 1013.9
20260903163018 76 108 0.0 0.0 0.00 0.00 0.00 70 1013.9
20260903162522 75 108 0.0 0.0 0.00 0.00 0.00 71 1013.9
20260903162051 74 108 0.0 0.0 0.00 0.00 0.00 73 1013.8
20260903161520 74 22 0.0 0.0 0.00 0.00 0.00 72 1013.9
20260903161023 74 36 0.0 0.0 0.00 0.00 0.00 73 1013.9
20260903160527 73 51 0.0 0.0 0.00 0.00 0.00 73 1014.0
20260903160032 73 51 0.0 0.0 0.00 0.00 0.00 73 1014.1
20260903155555 72 51 0.0 0.0 0.00 0.00 0.00 73 1014.0
20260903155037 71 51 0.0 0.0 0.00 0.00 0.00 75 1014.0
20260903154526 70 49 0.0 0.0 0.00 0.00 0.00 76 1014.1
20260903154034 69 50 0.0 0.0 0.00 0.00 0.00 77 1014.1
20260903153540 68 56 0.0 0.0 0.00 0.00 0.00 78 1014.2
20260903153023 67 49 0.0 0.0 0.00 0.00 0.00 79 1014.1
20260903152525 67 50 0.0 0.0 0.00 0.00 0.00 81 1014.1
20260903152027 66 32 0.0 0.0 0.00 0.00 0.00 82 1014.3
20260903151526 65 51 0.0 0.0 0.00 0.00 0.00 81 1014.2
20260903151028 65 40 0.0 0.0 0.00 0.00 0.00 82 1014.2
20260903150534 65 47 0.0 0.0 0.00 0.00 0.00 82 1014.2
20260903150019 65 42 0.0 0.0 0.00 0.00 0.00 83 1014.2
20260903145549 64 45 0.0 0.0 0.00 0.00 0.00 84 1014.2
20260903145033 63 52 0.0 0.0 0.00 0.00 0.00 85 1014.2
20260903144521 63 59 0.0 0.0 0.00 0.00 0.00 85 1014.2
20260903144020 63 54 0.0 0.0 0.00 0.00 0.00 86 1014.1
20260903143542 62 55 0.0 0.0 0.00 0.00 0.00 87 1014.0
20260903143024 62 41 0.0 4.0 0.00 0.00 0.00 87 1013.9
20260903142548 62 70 0.0 8.0 0.00 0.00 0.00 87 1013.9
20260903142030 62 63 3.0 8.0 0.00 0.00 0.00 87 1013.8
20260903141534 61 72 3.0 7.0 0.00 0.00 0.00 88 1013.8
20260903141021 61 63 3.0 10.0 0.00 0.00 0.00 88 1013.8
20260903140521 61 38 5.0 10.0 0.00 0.00 0.00 88 1013.7
20260903140026 61 53 4.0 7.0 0.00 0.00 0.00 89 1013.6
20260903135526 61 49 4.0 7.0 0.00 0.00 0.00 89 1013.5
20260903135035 61 53 3.0 6.0 0.00 0.00 0.00 89 1013.6
20260903134519 61 55 4.0 6.0 0.00 0.00 0.00 89 1013.5
20260903134018 61 47 3.0 8.0 0.00 0.00 0.00 89 1013.4
20260903133542 60 61 4.0 8.0 0.00 0.00 0.00 89 1013.4
20260903133028 60 45 4.0 8.0 0.00 0.00 0.00 89 1013.2
20260903132532 60 61 3.0 8.0 0.00 0.00 0.00 89 1013.2
20260903132056 60 53 3.0 7.0 0.00 0.00 0.00 89 1013.2
20260903131537 60 53 3.0 8.0 0.00 0.00 0.00 89 1013.3
20260903131042 60 40 3.0 5.0 0.00 0.00 0.00 89 1013.3
20260903130526 60 60 2.0 6.0 0.00 0.00 0.00 89 1013.3
20260903130050 60 36 3.0 6.0 0.00 0.00 0.00 89 1013.3
20260903125528 60 56 3.0 6.0 0.00 0.00 0.00 88 1013.3
20260903125034 60 56 2.0 7.0 0.00 0.00 0.00 88 1013.2
20260903124518 61 55 4.0 7.0 0.00 0.00 0.00 88 1013.3
20260903124025 61 67 3.0 7.0 0.00 0.00 0.00 88 1013.2
20260903123527 61 65 4.0 7.0 0.00 0.00 0.00 88 1013.1
20260903123031 61 52 4.0 7.0 0.00 0.00 0.00 88 1013.2
20260903122519 61 54 3.0 6.0 0.00 0.00 0.00 88 1013.2
20260903122043 61 46 3.0 5.0 0.00 0.00 0.00 89 1013.2
20260903121523 61 48 3.0 5.0 0.00 0.00 0.00 88 1013.1
20260903121022 61 48 2.0 7.0 0.00 0.00 0.00 88 1013.1
20260903120525 61 51 4.0 8.0 0.00 0.00 0.00 89 1013.2
20260903120029 61 28 5.0 8.0 0.00 0.00 0.00 88 1013.2
20260903115529 61 43 5.0 9.0 0.00 0.00 0.00 88 1013.1
20260903115032 61 48 4.0 7.0 0.00 0.00 0.00 88 1013.2
20260903114537 61 68 5.0 7.0 0.00 0.00 0.00 88 1013.2
20260903114045 61 68 3.0 6.0 0.00 0.00 0.00 88 1013.2
20260903113528 61 62 4.0 7.0 0.00 0.00 0.00 88 1013.2
20260903113028 61 59 3.0 6.0 0.00 0.00 0.00 88 1013.2
20260903112530 61 39 3.0 6.0 0.00 0.00 0.00 88 1013.2
20260903112054 61 76 2.0 5.0 0.00 0.00 0.00 88 1013.2
20260903111534 61 60 2.0 5.0 0.00 0.00 0.00 88 1013.2
20260903111035 61 57 2.0 7.0 0.00 0.00 0.00 88 1013.3
20260903110518 61 57 1.0 7.0 0.00 0.00 0.00 88 1013.3
20260903110034 62 60 4.0 7.0 0.00 0.00 0.00 88 1013.3
20260903105520 62 59 0.0 4.0 0.00 0.00 0.00 88 1013.3
20260903105023 62 59 1.0 4.0 0.00 0.00 0.00 87 1013.4
20260903104526 62 61 2.0 5.0 0.00 0.00 0.00 88 1013.4
20260903104034 62 64 1.0 5.0 0.00 0.00 0.00 87 1013.4
20260903103538 62 61 2.0 5.0 0.00 0.00 0.00 87 1013.4
20260903103022 63 60 1.0 4.0 0.00 0.00 0.00 87 1013.5
20260903102524 63 65 0.0 5.0 0.00 0.00 0.00 87 1013.5
20260903102034 63 67 1.0 5.0 0.00 0.00 0.00 87 1013.5
20260903101518 63 53 0.0 0.0 0.00 0.00 0.00 87 1013.6
20260903101029 63 52 0.0 0.0 0.00 0.00 0.00 86 1013.7
20260903100529 63 52 0.0 0.0 0.00 0.00 0.00 86 1013.7
20260903100027 63 52 0.0 3.0 0.00 0.00 0.00 86 1013.7
20260903095529 63 53 1.0 3.0 0.00 0.00 0.00 86 1013.8
20260903095029 63 51 0.0 3.0 0.00 0.00 0.00 86 1013.8
20260903094532 63 55 1.0 4.0 0.00 0.00 0.00 86 1013.8
20260903094038 63 55 0.0 4.0 0.00 0.00 0.00 86 1013.9
20260903093523 63 53 0.0 4.0 0.00 0.00 0.00 86 1013.9
20260903093025 63 56 1.0 5.0 0.00 0.00 0.00 86 1013.9
20260903092526 63 61 2.0 5.0 0.00 0.00 0.00 86 1013.9
20260903092034 63 54 0.0 3.0 0.00 0.00 0.00 86 1013.9
20260903091522 63 54 0.0 4.0 0.00 0.00 0.00 86 1014.0
20260903091044 63 53 1.0 4.0 0.00 0.00 0.00 86 1014.0
20260903090523 63 53 1.0 4.0 0.00 0.00 0.00 86 1013.9
20260903090023 63 52 0.0 4.0 0.00 0.00 0.00 87 1014.1
20260903085526 63 51 1.0 4.0 0.00 0.00 0.00 87 1014.1
20260903085033 63 51 1.0 5.0 0.00 0.00 0.00 87 1014.1
20260903084538 63 50 2.0 5.0 0.00 0.00 0.00 87 1014.1
20260903084021 63 54 2.0 4.0 0.00 0.00 0.00 87 1014.1
20260903083520 63 55 1.0 4.0 0.00 0.00 0.00 86 1014.2
20260903083022 63 55 0.0 2.0 0.00 0.00 0.00 86 1014.2
20260903082522 63 56 0.0 3.0 0.00 0.00 0.00 86 1014.2
20260903082021 63 55 0.0 3.0 0.00 0.00 0.00 86 1014.2
20260903081528 64 55 0.0 4.0 0.00 0.00 0.00 86 1014.3
20260903081016 64 55 0.0 4.0 0.00 0.00 0.00 86 1014.3
20260903080523 64 28 2.0 3.0 0.00 0.00 0.00 86 1014.3
20260903080047 64 28 0.0 0.0 0.00 0.00 0.00 86 1014.3
20260903075530 64 18 0.0 4.0 0.00 0.00 0.00 86 1014.3
20260903075037 64 18 1.0 4.0 0.00 0.00 0.00 86 1014.3
20260903074556 64 340 0.0 0.0 0.00 0.00 0.00 86 1014.3
20260903074018 64 340 0.0 0.0 0.00 0.00 0.00 85 1014.2
20260903073548 64 340 0.0 2.0 0.00 0.00 0.00 85 1014.2
20260903073053 64 333 0.0 2.0 0.00 0.00 0.00 85 1014.3
20260903072530 65 332 0.0 1.0 0.00 0.00 0.00 85 1014.3
20260903072019 65 331 0.0 0.0 0.00 0.00 0.00 85 1014.2
20260903071522 65 331 0.0 2.0 0.00 0.00 0.00 84 1014.3
20260903071028 65 331 0.0 3.0 0.00 0.00 0.00 84 1014.3
20260903070531 65 320 0.0 3.0 0.00 0.00 0.00 84 1014.2
20260903070057 65 318 0.0 3.0 0.00 0.00 0.00 84 1014.2
20260903065519 66 317 1.0 2.0 0.00 0.00 0.00 83 1014.2
20260903065024 66 294 1.0 2.0 0.00 0.00 0.00 83 1014.2
20260903064524 66 288 1.0 2.0 0.00 0.00 0.00 83 1014.2
20260903064053 66 281 0.0 0.0 0.00 0.00 0.00 83 1014.2
20260903063536 67 281 0.0 0.0 0.00 0.00 0.00 83 1014.2
20260903063044 67 281 0.0 0.0 0.00 0.00 0.00 83 1014.2
20260903062524 67 281 0.0 0.0 0.00 0.00 0.00 82 1014.3
20260903062025 67 281 0.0 0.0 0.00 0.00 0.00 82 1014.3
20260903061530 67 281 0.0 0.0 0.00 0.00 0.00 82 1014.3
20260903061030 67 281 0.0 0.0 0.00 0.00 0.00 81 1014.3
20260903060554 67 281 0.0 0.0 0.00 0.00 0.00 81 1014.3
20260903060035 68 281 0.0 0.0 0.00 0.00 0.00 81 1014.4
20260903055519 68 281 0.0 0.0 0.00 0.00 0.00 80 1014.4
20260903055019 68 281 0.0 0.0 0.00 0.00 0.00 80 1014.4
20260903054524 68 282 0.0 0.0 0.00 0.00 0.00 80 1014.4
20260903054031 68 282 0.0 2.0 0.00 0.00 0.00 80 1014.4
20260903053520 68 282 0.0 2.0 0.00 0.00 0.00 80 1014.4
20260903053020 68 281 0.0 1.0 0.00 0.00 0.00 80 1014.4
20260903052522 68 282 0.0 1.0 0.00 0.00 0.00 80 1014.5
20260903052024 69 282 0.0 0.0 0.00 0.00 0.00 79 1014.4
20260903051525 69 283 0.0 0.0 0.00 0.00 0.00 79 1014.4
20260903051028 69 283 0.0 0.0 0.00 0.00 0.00 79 1014.4
20260903050528 70 284 0.0 0.0 0.00 0.00 0.00 79 1014.5
20260903050031 70 284 0.0 1.0 0.00 0.00 0.00 79 1014.5
20260903045553 70 284 0.0 2.0 0.00 0.00 0.00 79 1014.5
20260903045038 70 284 0.0 2.0 0.00 0.00 0.00 79 1014.5
20260903044519 70 286 0.0 3.0 0.00 0.00 0.00 80 1014.4
20260903044027 70 286 0.0 5.0 0.00 0.00 0.00 80 1014.4
20260903043528 70 257 1.0 5.0 0.00 0.00 0.00 80 1014.4
20260903043029 70 260 1.0 6.0 0.00 0.00 0.00 81 1014.3
20260903042532 70 263 2.0 6.0 0.00 0.00 0.00 81 1014.3
20260903042037 70 327 0.0 3.0 0.00 0.00 0.00 79 1014.3
20260903041522 70 327 0.0 3.0 0.00 0.00 0.00 78 1014.3
20260903041048 70 254 0.0 3.0 0.00 0.00 0.00 79 1014.3
20260903040525 70 233 0.0 2.0 0.00 0.00 0.00 77 1014.2
20260903040032 70 232 0.0 2.0 0.00 0.00 0.00 78 1014.1
20260903035515 70 232 0.0 1.0 0.00 0.00 0.00 79 1014.1
20260903035020 70 231 0.0 1.0 0.00 0.00 0.00 80 1014.0
20260903034545 70 231 0.0 1.0 0.00 0.00 0.00 81 1013.9
20260903034044 70 232 0.0 1.0 0.00 0.00 0.00 81 1013.9
20260903033521 70 232 0.0 0.0 0.00 0.00 0.00 80 1013.8
20260903033024 70 232 0.0 0.0 0.00 0.00 0.00 79 1013.8
20260903032525 70 232 0.0 0.0 0.00 0.00 0.00 79 1013.8
20260903032022 70 233 0.0 0.0 0.00 0.00 0.00 78 1013.7
20260903031524 70 233 0.0 0.0 0.00 0.00 0.00 77 1013.5
20260903031045 70 234 0.0 1.0 0.00 0.00 0.00 76 1013.5
20260903030545 70 234 0.0 1.0 0.00 0.00 0.00 76 1013.5
20260903030046 70 234 0.0 2.0 0.00 0.00 0.00 75 1013.6
20260903025552 70 234 0.0 2.0 0.00 0.00 0.00 75 1013.5
20260903025027 70 248 0.0 1.0 0.00 0.00 0.00 74 1013.5
20260903024529 70 248 0.0 3.0 0.00 0.00 0.00 74 1013.5
20260903024035 71 248 0.0 3.0 0.00 0.00 0.00 74 1013.4
20260903023535 71 244 1.0 6.0 0.00 0.00 0.00 74 1013.4
20260903023037 71 254 2.0 6.0 0.00 0.00 0.00 74 1013.4
20260903022521 71 216 1.0 3.0 0.00 0.00 0.00 75 1013.4
20260903022025 71 217 0.0 3.0 0.00 0.00 0.00 75 1013.4
20260903021533 72 217 1.0 3.0 0.00 0.00 0.00 75 1013.4
20260903021053 72 206 2.0 5.0 0.00 0.00 0.00 75 1013.4
20260903020537 72 271 1.0 5.0 0.00 0.00 0.00 74 1013.4
20260903020021 72 290 3.0 5.0 0.00 0.00 0.00 74 1013.4
20260903015522 72 240 0.0 4.0 0.00 0.00 0.00 75 1013.3
20260903015026 72 240 2.0 5.0 0.00 0.00 0.00 74 1013.3
20260903014548 73 210 2.0 5.0 0.00 0.00 0.00 74 1013.3
20260903014027 73 237 2.0 6.0 0.00 0.00 0.00 73 1013.3
20260903013529 74 274 3.0 6.0 0.00 0.00 0.00 73 1013.3
20260903013028 74 231 2.0 5.0 0.00 0.00 0.00 73 1013.4
20260903012528 75 202 1.0 5.0 0.00 0.00 0.00 72 1013.3
20260903012028 75 227 0.0 5.0 0.00 0.00 0.00 71 1013.4
20260903011527 75 215 1.0 5.0 0.00 0.00 0.00 71 1013.4
20260903011029 76 225 2.0 7.0 0.00 0.00 0.00 69 1013.3
20260903010552 77 225 3.0 8.0 0.00 0.00 0.00 68 1013.3
20260903010030 77 240 1.0 8.0 0.00 0.00 0.00 68 1013.3
20260903005530 77 215 2.0 6.0 0.00 0.00 0.00 67 1013.3
20260903005026 77 244 2.0 6.0 0.00 0.00 0.00 65 1013.3
20260903004526 78 262 2.0 6.0 0.00 0.00 0.00 64 1013.3
20260903004035 78 248 1.0 7.0 0.00 0.00 0.00 64 1013.3
20260903003540 78 217 3.0 7.0 0.00 0.00 0.00 64 1013.3
20260903003021 78 246 3.0 6.0 0.00 0.00 0.00 64 1013.3
20260903002523 78 205 3.0 7.0 0.00 0.00 0.00 65 1013.2
20260903002023 78 227 4.0 7.0 0.00 0.00 0.00 66 1013.3
20260903001521 78 240 3.0 8.0 0.00 0.00 0.00 66 1013.4
20260903001022 78 217 3.0 8.0 0.00 0.00 0.00 67 1013.4
20260903000526 78 243 4.0 7.0 0.00 0.00 0.00 66 1013.4
20260903000051 78 226 4.0 7.0 0.00 0.00 0.00 66 1013.4
20260902235554 79 206 3.0 7.0 0.00 0.00 0.00 66 1013.3
20260902235033 79 223 4.0 7.0 0.00 0.00 0.00 66 1013.3
20260902234553 79 211 3.0 8.0 0.00 0.00 0.00 65 1013.4
20260902234051 79 233 4.0 7.0 0.00 0.00 0.00 65 1013.4
20260902233535 80 240 3.0 7.0 0.00 0.00 0.00 66 1013.5
20260902233035 79 190 3.0 7.0 0.00 0.00 0.00 66 1013.5
20260902232535 79 194 4.0 8.0 0.00 0.00 0.00 66 1013.5
20260902232038 79 221 4.0 10.0 0.00 0.00 0.00 66 1013.6
20260902231541 79 211 4.0 10.0 0.00 0.00 0.00 66 1013.7
20260902231020 79 229 4.0 8.0 0.00 0.00 0.00 67 1013.7
20260902230521 80 215 4.0 7.0 0.00 0.00 0.00 66 1013.7
20260902230041 80 186 3.0 8.0 0.00 0.00 0.00 68 1013.7
20260902225523 80 308 3.0 10.0 0.00 0.00 0.00 66 1013.8
20260902225022 80 200 4.0 11.0 0.00 0.00 0.00 66 1013.8
20260902224527 80 203 4.0 11.0 0.00 0.00 0.00 66 1013.9
20260902224027 80 218 3.0 10.0 0.00 0.00 0.00 66 1013.9
20260902223526 80 223 4.0 11.0 0.00 0.00 0.00 66 1013.9
20260902223027 80 273 5.0 11.0 0.00 0.00 0.00 66 1014.0
20260902222526 80 195 3.0 8.0 0.00 0.00 0.00 65 1014.0
20260902222025 79 258 4.0 9.0 0.00 0.00 0.00 66 1014.2
20260902221531 79 244 5.0 9.0 0.00 0.00 0.00 66 1014.2
20260902221032 80 255 6.0 9.0 0.00 0.00 0.00 65 1014.1
20260902220530 80 207 4.0 8.0 0.00 0.00 0.00 64 1014.2
20260902220030 79 211 3.0 8.0 0.00 0.00 0.00 65 1014.2
20260902215535 79 252 4.0 8.0 0.00 0.00 0.00 66 1014.3
20260902215039 79 199 4.0 9.0 0.00 0.00 0.00 66 1014.3
20260902214525 79 234 4.0 9.0 0.00 0.00 0.00 66 1014.3
20260902214028 80 210 3.0 8.0 0.00 0.00 0.00 65 1014.4
20260902213529 79 209 3.0 10.0 0.00 0.00 0.00 65 1014.4
20260902213033 80 242 3.0 10.0 0.00 0.00 0.00 65 1014.3
20260902212541 80 223 4.0 8.0 0.00 0.00 0.00 66 1014.4
20260902212021 79 209 3.0 7.0 0.00 0.00 0.00 66 1014.4
20260902211522 79 228 3.0 8.0 0.00 0.00 0.00 66 1014.5
20260902211023 79 275 3.0 8.0 0.00 0.00 0.00 67 1014.5
20260902210524 79 205 3.0 10.0 0.00 0.00 0.00 67 1014.5
20260902210036 78 201 5.0 10.0 0.00 0.00 0.00 68 1014.5
20260902205526 78 272 5.0 9.0 0.00 0.00 0.00 67 1014.6
20260902205030 79 263 4.0 10.0 0.00 0.00 0.00 67 1014.6
20260902204535 78 205 4.0 10.0 0.00 0.00 0.00 67 1014.7
20260902204019 79 211 4.0 10.0 0.00 0.00 0.00 66 1014.7
20260902203524 79 213 4.0 10.0 0.00 0.00 0.00 66 1014.7
20260902203027 79 266 5.0 10.0 0.00 0.00 0.00 66 1014.8
20260902202535 79 232 4.0 7.0 0.00 0.00 0.00 66 1014.7
20260902202037 79 207 4.0 10.0 0.00 0.00 0.00 66 1014.8
20260902201544 79 265 4.0 10.0 0.00 0.00 0.00 67 1014.8
20260902201024 79 212 5.0 9.0 0.00 0.00 0.00 68 1014.8
20260902200524 79 208 5.0 9.0 0.00 0.00 0.00 67 1014.8
20260902200030 79 213 4.0 9.0 0.00 0.00 0.00 67 1014.9
20260902195533 79 196 3.0 11.0 0.00 0.00 0.00 68 1015.0